Weather History for Texarkana, AR

Change the Weather History Date:

Friday, November 9, 2012

  Actual Average Record
Temperature  
Mean Temperature 66 °F 57 °F  
Max Temperature 78 °F 67 °F 85 °F (1934)
Min Temperature 53 °F 46 °F 21 °F (1991)
Degree Days  
Heating Degree Days 0 9  
Month to date heating degree days 46 72  
Since 1 July heating degree days 181 190  
Cooling Degree Days 1 1  
Month to date cooling degree days 12 9  
Year to date cooling degree days 2787 2197  
Growing Degree Days 16 (Base 50)    
Moisture  
Dew Point 52 °F    
Average Humidity 63    
Maximum Humidity 83    
Minimum Humidity 43    
Precipitation  
Precipitation 0.00 in 0.15 in 3.39 in (1987)
Month to date precipitation 0.16 1.33  
Year to date precipitation 26.72 41.11  
Snow  
Snow 0.00 in - - ()
Month to date snowfall 0.0  
Since 1 July snowfall 0.0  
Since 1 September snowfall 0.0  
Snow Depth 0.00 in    
Sea Level Pressure  
Sea Level Pressure 30.08 in    
Wind  
Wind Speed 11 mph (South)    
Max Wind Speed 20 mph    
Max Gust Speed 29 mph    
Visibility 10 miles    
Events      
T = Trace of Precipitation, MM = Missing Value Source: NWS Daily Summary

Daily Weather History Graph

Daily Weather History Graph

Search for Another Location

Airport:

Trip Planner

Search our weather history database for the weather conditions in past years. The results will help you decide how hot, cold, wet, or windy it might be!

Date:

Astronomy

Nov. 09, 2012 Rise Set
Actual Time 6:42 AM CST 5:16 PM CST
Civil Twilight 6:16 AM CST 5:43 PM CST
Nautical Twilight 5:46 AM CST 6:12 PM CST
Astronomical Twilight 5:17 AM CST 6:42 PM CST
Moon 1:55 AM CST (11/9) 2:18 PM CST (11/9)
Length of Visible Light 11h 26m
Length of Day
10h 34m
Waning Crescent, 23% of the Moon is Illuminated
Nov 9
Waning Crescent
Nov 13
New
Nov 20
First Quarter
Nov 28
Full
Dec 6
Last Quarter

Hourly Weather History & Observations

Time (CST) Temp. Dew Point Humidity Pressure Visibility Wind Dir Wind Speed Gust Speed Precip Events Conditions
12:53 AM 55.9 °F 46.0 °F 69% 30.09 in 10.0 mi South 9.2 mph - N/A   Clear
1:53 AM 55.9 °F 46.9 °F 72% 30.09 in 10.0 mi South 11.5 mph - N/A   Clear
2:53 AM 55.0 °F 46.9 °F 74% 30.09 in 10.0 mi South 9.2 mph - N/A   Clear
3:53 AM 54.0 °F 46.9 °F 77% 30.10 in 10.0 mi South 6.9 mph - N/A   Clear
4:53 AM 54.0 °F 48.0 °F 80% 30.11 in 10.0 mi South 9.2 mph - N/A   Clear
5:53 AM 54.0 °F 48.0 °F 80% 30.11 in 10.0 mi South 9.2 mph - N/A   Clear
6:53 AM 54.0 °F 48.9 °F 83% 30.13 in 10.0 mi South 6.9 mph - N/A   Clear
7:53 AM 55.9 °F 50.0 °F 80% 30.15 in 10.0 mi South 8.1 mph - N/A   Mostly Cloudy
8:53 AM 60.1 °F 53.1 °F 78% 30.15 in 10.0 mi South 8.1 mph - N/A   Overcast
9:53 AM 66.9 °F 55.9 °F 68% 30.14 in 10.0 mi South 11.5 mph - N/A   Scattered Clouds
10:53 AM 70.0 °F 57.9 °F 65% 30.13 in 10.0 mi South 17.3 mph 23.0 mph N/A   Clear
11:53 AM 73.9 °F 60.1 °F 62% 30.09 in 10.0 mi South 12.7 mph 19.6 mph N/A   Partly Cloudy
12:53 PM 75.9 °F 59.0 °F 56% 30.05 in 10.0 mi South 13.8 mph 21.9 mph N/A   Clear
1:53 PM 77.0 °F 59.0 °F 54% 30.03 in 10.0 mi South 12.7 mph 20.7 mph N/A   Clear
2:53 PM 77.0 °F 54.0 °F 45% 30.02 in 10.0 mi South 13.8 mph - N/A   Clear
3:53 PM 75.9 °F 53.1 °F 45% 30.02 in 10.0 mi South 15.0 mph - N/A   Clear
4:53 PM 73.0 °F 52.0 °F 48% 30.02 in 10.0 mi South 12.7 mph - N/A   Clear
5:53 PM 69.1 °F 52.0 °F 54% 30.03 in 10.0 mi SSE 8.1 mph - N/A   Clear
6:53 PM 68.0 °F 53.1 °F 59% 30.04 in 10.0 mi SSE 11.5 mph - N/A   Clear
7:53 PM 66.0 °F 52.0 °F 60% 30.04 in 10.0 mi SSE 10.4 mph - N/A   Clear
8:53 PM 64.0 °F 50.0 °F 60% 30.05 in 10.0 mi SSE 10.4 mph - N/A   Clear
9:53 PM 64.0 °F 51.1 °F 63% 30.06 in 10.0 mi South 11.5 mph - N/A   Clear
10:53 PM 62.1 °F 53.1 °F 72% 30.07 in 10.0 mi South 8.1 mph - N/A   Clear
11:53 PM 62.1 °F 55.0 °F 78% 30.07 in 10.0 mi South 10.4 mph - N/A   Clear